Change the Weather History Date:

Tuesday, September 4, 2012

  Actual Average (KLBX) Record (KLBX)
Temperature  
Mean Temperature 86 °F -  
Max Temperature 95 °F 87 °F 108 °F (2000)
Min Temperature 76 °F 72 °F 70 °F (2006)
Cooling Degree Days 20    
Growing Degree Days 36 (Base 50)    
Moisture  
Dew Point 76 °F    
Average Humidity 80    
Maximum Humidity 100    
Minimum Humidity 46    
Precipitation  
Precipitation 0.00 in - - ()
Sea Level Pressure  
Sea Level Pressure 29.94 in    
Wind  
Wind Speed 5 mph (South)    
Max Wind Speed 12 mph    
Max Gust Speed 17 mph    
Visibility 10 miles    
Events      
Averages and records for this station are not official NWS values.
T = Trace of Precipitation, MM = Missing Value Source: NWS Daily Summary

Daily Weather History Graph

Daily Weather History Graph

Search for Another Location

Airport or City:

Trip Planner

Search our weather history database for the weather conditions in past years. The results will help you decide how hot, cold, wet, or windy it might be!

Date:

Astronomy

Sep. 04, 2012 Rise Set
Actual Time 7:03 AM CDT 7:41 PM CDT
Civil Twilight 6:39 AM CDT 8:04 PM CDT
Nautical Twilight 6:10 AM CDT 8:33 PM CDT
Astronomical Twilight 5:42 AM CDT 9:01 PM CDT
Moon 10:01 PM CDT (9/4) 10:45 AM CDT (9/4)
Length of Visible Light 13h 25m
Length of Day
12h 37m
Waning Gibbous, 83% of the Moon is Illuminated
Sep 4
Waning Gibbous
Sep 8
Last Quarter
Sep 15
New
Sep 22
First Quarter
Sep 29
Full

Hourly Weather History & Observations

Time (CDT) Temp. Heat Index Dew Point Humidity Pressure Visibility Wind Dir Wind Speed Gust Speed Precip Events Conditions
12:15 AM 77.9 °F - 77.9 °F 100% 29.97 in 10.0 mi South 4.6 mph - N/A   Clear
12:35 AM 77.7 °F - 77.7 °F 100% 29.97 in 10.0 mi South 4.6 mph - N/A   Clear
12:55 AM 77.4 °F - 77.4 °F 100% 29.97 in 10.0 mi South 4.6 mph - N/A   Clear
1:15 AM 77.4 °F - 77.4 °F 100% 29.97 in 10.0 mi South 3.5 mph - N/A   Clear
1:35 AM 77.0 °F - 77.0 °F 100% 29.96 in 10.0 mi South 3.5 mph - N/A   Clear
1:55 AM 76.6 °F - 76.6 °F 100% 29.96 in 10.0 mi South 4.6 mph - N/A   Clear
2:15 AM 76.5 °F - 76.5 °F 100% 29.96 in 10.0 mi South 3.5 mph - N/A   Clear
2:35 AM 76.6 °F - 76.6 °F 100% 29.96 in 10.0 mi South 3.5 mph - N/A   Clear
2:55 AM 76.5 °F - 76.5 °F 100% 29.96 in 10.0 mi South 3.5 mph - N/A   Clear
3:15 AM 76.3 °F - 76.3 °F 100% 29.96 in 10.0 mi Calm Calm - N/A   Clear
3:35 AM 76.3 °F - 76.3 °F 100% 29.95 in 10.0 mi SSE 3.5 mph - N/A   Clear
3:55 AM 76.5 °F - 76.5 °F 100% 29.95 in 10.0 mi South 4.6 mph - N/A   Clear
4:15 AM 76.8 °F - 76.8 °F 100% 29.95 in 10.0 mi Calm Calm - N/A   Clear
4:35 AM 77.0 °F - 77.0 °F 100% 29.95 in 10.0 mi Calm Calm - N/A   Clear
4:55 AM 76.5 °F - 76.5 °F 100% 29.95 in 10.0 mi Calm Calm - N/A   Clear
5:15 AM 76.5 °F - 76.5 °F 100% 29.95 in 10.0 mi Calm Calm - N/A   Clear
5:35 AM 76.1 °F - 76.1 °F 100% 29.95 in 10.0 mi SSE 3.5 mph - N/A   Clear
5:55 AM 76.1 °F - 76.1 °F 100% 29.95 in 10.0 mi SSE 4.6 mph - N/A   Clear
6:15 AM 76.8 °F - 76.8 °F 100% 29.95 in 10.0 mi SSE 4.6 mph - N/A   Clear
6:35 AM 77.0 °F - 77.0 °F 100% 29.95 in 10.0 mi SSE 3.5 mph - N/A   Clear
6:55 AM 76.8 °F - 76.8 °F 100% 29.95 in 7.0 mi SSE 3.5 mph - N/A   Clear
7:15 AM 76.5 °F - 76.5 °F 100% 29.96 in 10.0 mi Calm Calm - N/A   Clear
7:35 AM 76.8 °F - 76.8 °F 100% 29.96 in 10.0 mi South 3.5 mph - N/A   Clear
7:55 AM 78.3 °F - 78.3 °F 100% 29.97 in 10.0 mi SSE 3.5 mph - N/A   Clear
8:15 AM 80.2 °F 88.0 °F 80.2 °F 100% 29.97 in 10.0 mi South 3.5 mph - N/A   Clear
8:35 AM 82.0 °F 94.4 °F 81.9 °F 99% 29.97 in 10.0 mi South 3.5 mph - N/A   Clear
8:55 AM 83.8 °F 100.1 °F 82.6 °F 96% 29.98 in 10.0 mi South 5.8 mph - N/A   Clear
9:15 AM 85.6 °F 102.8 °F 81.7 °F 88% 29.97 in 10.0 mi South 11.5 mph - N/A   Clear
9:35 AM 86.9 °F 101.5 °F 79.2 °F 78% 29.98 in 10.0 mi South 10.4 mph - N/A   Clear
9:55 AM 88.3 °F 101.7 °F 77.9 °F 71% 29.97 in 10.0 mi South 10.4 mph - N/A   Scattered Clouds
10:15 AM 90.1 °F 103.7 °F 77.4 °F 66% 29.98 in 10.0 mi South 9.2 mph - N/A   Scattered Clouds
10:35 AM 90.7 °F 102.6 °F 75.9 °F 62% 29.98 in 10.0 mi South 6.9 mph - N/A   Clear
10:55 AM 90.7 °F 101.9 °F 75.6 °F 61% 29.98 in 10.0 mi SSW 10.4 mph - N/A   Scattered Clouds
11:15 AM 90.9 °F 101.8 °F 75.4 °F 60% 29.98 in 10.0 mi SSW 10.4 mph - N/A   Scattered Clouds
11:35 AM 92.1 °F 104.3 °F 75.7 °F 59% 29.98 in 10.0 mi South 8.1 mph - N/A   Scattered Clouds
11:55 AM 93.0 °F 106.0 °F 76.1 °F 58% 29.98 in 10.0 mi SW 10.4 mph - N/A   Scattered Clouds
12:15 PM 92.5 °F 104.6 °F 75.7 °F 58% 29.98 in 10.0 mi SW 9.2 mph - N/A   Scattered Clouds
12:35 PM 92.7 °F 103.0 °F 74.5 °F 55% 29.97 in 10.0 mi South 10.4 mph - N/A   Scattered Clouds
12:55 PM 93.7 °F 102.9 °F 73.4 °F 51% 29.96 in 10.0 mi SSW 9.2 mph - N/A   Scattered Clouds
1:15 PM 93.9 °F 102.7 °F 72.9 °F 50% 29.96 in 10.0 mi South 8.1 mph - N/A   Clear
1:35 PM 94.1 °F 102.5 °F 72.5 °F 49% 29.95 in 10.0 mi SSW 11.5 mph - N/A   Clear
1:55 PM 94.1 °F 103.8 °F 73.6 °F 51% 29.95 in 10.0 mi SSW 10.4 mph - N/A   Scattered Clouds
2:15 PM 94.3 °F 102.9 °F 72.3 °F 49% 29.94 in 10.0 mi SSW 9.2 mph - N/A   Clear
2:35 PM 94.8 °F 103.4 °F 72.5 °F 48% 29.93 in 10.0 mi South 10.4 mph - N/A   Clear
2:55 PM 95.0 °F 103.2 °F 72.0 °F 47% 29.93 in 10.0 mi SSW 8.1 mph 17.3 mph N/A   Clear
3:15 PM 94.8 °F 102.1 °F 70.9 °F 46% 29.93 in 10.0 mi SSW 9.2 mph - N/A   Clear
3:35 PM 94.8 °F 102.8 °F 72.0 °F 47% 29.91 in 10.0 mi SSE 9.2 mph 16.1 mph N/A   Clear
3:55 PM 94.5 °F 103.3 °F 72.9 °F 49% 29.91 in 10.0 mi South 11.5 mph - N/A   Clear
4:15 PM 93.9 °F 104.0 °F 73.8 °F 52% 29.90 in 10.0 mi SSE 11.5 mph 16.1 mph N/A   Clear
4:35 PM 93.4 °F 102.8 °F 73.6 °F 52% 29.90 in 10.0 mi South 9.2 mph - N/A   Clear
4:55 PM 93.2 °F 103.0 °F 73.8 °F 53% 29.89 in 10.0 mi South 9.2 mph - N/A   Clear
5:15 PM 92.7 °F 101.7 °F 73.0 °F 53% 29.90 in 10.0 mi South 9.2 mph - N/A   Clear
5:35 PM 92.3 °F 100.3 °F 72.5 °F 52% 29.89 in 10.0 mi South 9.2 mph - N/A   Clear
5:55 PM 91.8 °F 99.7 °F 72.5 °F 53% 29.89 in 10.0 mi South 10.4 mph - N/A   Clear
6:15 PM 90.9 °F 99.4 °F 73.0 °F 56% 29.89 in 10.0 mi South 9.2 mph - N/A   Clear
6:35 PM 89.4 °F 98.3 °F 73.9 °F 60% 29.89 in 10.0 mi South 10.4 mph - N/A   Clear
6:55 PM 88.0 °F 97.0 °F 74.3 °F 64% 29.89 in 10.0 mi South 8.1 mph - N/A   Clear
7:15 PM 86.4 °F 95.5 °F 75.2 °F 69% 29.88 in 10.0 mi SSE 6.9 mph - N/A   Clear
7:35 PM 84.6 °F 93.5 °F 75.9 °F 75% 29.88 in 10.0 mi SSE 4.6 mph - N/A   Clear
7:55 PM 82.6 °F 90.2 °F 75.7 °F 80% 29.88 in 10.0 mi SE 4.6 mph - N/A   Clear
8:15 PM 81.5 °F 88.5 °F 76.1 °F 84% 29.88 in 10.0 mi SSE 4.6 mph - N/A   Clear
8:35 PM 80.6 °F 86.4 °F 75.7 °F 85% 29.89 in 10.0 mi SE 4.6 mph - N/A   Clear
8:55 PM 79.7 °F - 77.4 °F 93% 29.90 in 10.0 mi SSE 4.6 mph - N/A   Clear
9:15 PM 79.3 °F - 79.2 °F 99% 29.90 in 10.0 mi SSE 4.6 mph - N/A   Clear
9:35 PM 79.0 °F - 79.0 °F 100% 29.91 in 10.0 mi SSE 4.6 mph - N/A   Clear
9:55 PM 78.8 °F - 78.8 °F 100% 29.91 in 10.0 mi SSE 3.5 mph - N/A   Scattered Clouds
10:15 PM 78.4 °F - 78.4 °F 100% 29.91 in 10.0 mi Calm Calm - N/A   Clear
10:35 PM 78.3 °F - 78.3 °F 100% 29.92 in 10.0 mi Calm Calm - N/A   Clear
10:55 PM 77.0 °F - 77.0 °F 100% 29.91 in 10.0 mi South 4.6 mph - N/A   Scattered Clouds
11:15 PM 77.9 °F - 77.9 °F 100% 29.91 in 10.0 mi SSE 3.5 mph - N/A   Clear
11:35 PM 77.9 °F - 77.9 °F 100% 29.92 in 10.0 mi SSE 3.5 mph - N/A   Clear
11:55 PM 77.9 °F - 77.9 °F 100% 29.91 in 10.0 mi South 4.6 mph - N/A   Clear